Location: ActonStarParty
(42.4766°N, 71.4538°W)
Time: 10:00:58
(UTC-05:00)

Amateur Radio Satellites - All Passes

Search period start: 11 February 2016 09:30
Search period end: 12 February 2016 09:30
Location: ActonStarParty, 42.4766°N, 71.4538°W

Satellite Date Start Highest point End Downlink Frequencies (MHz)
Time Altitude Azimuth
POLYITAN 1 11 Feb 09:33:38 09:37:15 28° 68° (ENE) 09:40:51 437.675
QB50P2 11 Feb 09:34:08 09:37:48 29° 69° (ENE) 09:41:29 145.880/145.840
HO-68 11 Feb 09:36:31 09:42:45 33° 299° (WNW) 09:48:59 435.675
UNISAT 6 11 Feb 09:38:06 09:42:22 63° 259° (WSW) 09:46:38 437.425
POPSAT HIP 1 11 Feb 10:02:56 10:07:04 57° 73° (ENE) 10:11:13 437.405
ZACube-1 11 Feb 10:06:10 10:10:01 35° 289° (WNW) 10:13:54 437.345
NANOSAT C BR1 11 Feb 10:06:38 10:10:47 61° 74° (ENE) 10:14:58 145.865
DUCHIFAT 1 11 Feb 10:07:23 10:11:31 59° 74° (ENE) 10:15:41 145.980
HUMSAT D 11 Feb 10:11:30 10:15:42 80° 103° (ESE) 10:19:55 437.325/437.525
FUNcube-1 11 Feb 10:14:33 10:18:15 30° 290° (WNW) 10:21:59 145.935
QB50P1 11 Feb 10:15:20 10:19:34 80° 75° (ENE) 10:23:48 145.935-145.965
50 SAT 11 Feb 10:22:29 10:25:28 22° 95° (E) 10:28:27 437.505
VELOX 1 11 Feb 10:23:28 10:26:41 20° 93° (E) 10:29:53 145.980
ANTELSAT 11 Feb 10:24:24 10:27:39 21° 266° (W) 10:30:53 437.575/2403.000
DELFI C3 11 Feb 10:27:59 10:31:25 27° 291° (WNW) 10:34:50 145.870
PCSat 11 Feb 10:29:43 10:35:08 82° 300° (WNW) 10:40:36 145.827
TIGRISAT 11 Feb 10:31:00 10:34:01 19° 267° (W) 10:37:03 435.000
AIST 1 11 Feb 10:37:10 10:41:25 48° 282° (WNW) 10:45:43
AISAT 11 Feb 10:39:55 10:43:49 30° 97° (E) 10:47:41 437.250
RS-15 11 Feb 10:40:59 10:51:46 60° 114° (ESE) 11:03:07 29.354- 29.394
UKube-1 11 Feb 10:44:14 10:48:01 29° 96° (E) 10:51:46 .
Oscar 11 11 Feb 10:46:53 10:48:40 12° 298° (WNW) 10:50:26 145.826/435.025
JAS-2 11 Feb 10:47:57 10:52:08 16° 57° (ENE) 10:56:05 435.910
SPROUT 11 Feb 10:52:36 10:54:09 12° 90° (E) 10:55:41 437.525
CUBEBUG 1 11 Feb 10:54:59 10:59:01 35° 97° (E) 11:03:00 437.445
DX 1 11 Feb 10:58:44 11:02:58 49° 100° (E) 11:07:10 434.975-435.025
BUGSAT 1 11 Feb 11:02:21 11:06:31 62° 259° (W) 11:10:40 437.445
ESTCUBE 1 11 Feb 11:07:36 11:12:09 68° 102° (ESE) 11:16:39 437.505/2401.250
DANDE 11 Feb 11:07:45 11:11:56 16° 56° (NE) 11:15:35 436.750
POLYITAN 1 11 Feb 11:09:30 11:13:02 25° 265° (W) 11:16:34 437.675
GONETS M04 11 Feb 11:10:06 11:14:18 14° 304° (NW) 11:18:31
QB50P2 11 Feb 11:10:07 11:13:36 24° 265° (W) 11:17:06 145.880/145.840
AO-85 11 Feb 11:10:41 11:15:21 28° 317° (NW) 11:20:05 145.980
Oscar 19 11 Feb 11:11:12 11:15:02 21° 63° (ENE) 11:18:51 437.125/150
Cosmos 2499 11 Feb 11:20:00 11:26:58 25° 295° (WNW) 11:34:01 435.465 / 435.565
SO-50 11 Feb 11:20:15 11:23:19 16° 36° (NE) 11:26:19 436.795
POPSAT HIP 1 11 Feb 11:41:20 11:43:13 13° 270° (W) 11:45:05 437.405
NANOSAT C BR1 11 Feb 11:45:25 11:46:55 12° 270° (W) 11:48:27 145.865
DUCHIFAT 1 11 Feb 11:45:59 11:47:37 12° 270° (W) 11:49:14 145.980
HUMSAT D 11 Feb 11:50:23 11:50:43 10° 299° (WNW) 11:51:02 437.325/437.525
Gurwin Techsat 1B 11 Feb 11:55:00 11:58:54 21° 62° (ENE) 12:02:48 435.225
YUBILEINY 11 Feb 11:56:01 12:01:15 17° 58° (ENE) 12:06:27 435.215
50 SAT 11 Feb 11:56:15 11:59:28 26° 291° (WNW) 12:02:41 437.505
VELOX 1 11 Feb 11:59:11 12:03:19 39° 290° (WNW) 12:07:25 145.980
CUSAT 1 11 Feb 12:02:49 12:08:38 66° 76° (ENE) 12:12:56 437.405
PCSat 11 Feb 12:16:02 12:19:24 16° 321° (NW) 12:22:47 145.827
AISAT 11 Feb 12:16:33 12:20:12 26° 293° (WNW) 12:23:50 437.250
UKube-1 11 Feb 12:20:22 12:23:59 26° 293° (WNW) 12:27:33 .
ITAMSAT 1 11 Feb 12:23:40 12:27:24 20° 62° (ENE) 12:31:10 435.822/435.867
AO-7 11 Feb 12:24:29 12:29:20 17° 46° (NE) 12:34:12 29.400- 29.500
SPROUT 11 Feb 12:26:19 12:30:33 62° 285° (WNW) 12:34:44 437.525
JAS-2 11 Feb 12:28:38 12:36:16 78° 73° (ENE) 12:43:11 435.910
TISAT 1 11 Feb 12:29:06 12:33:10 50° 100° (E) 12:37:13 437.305
CUBEBUG 1 11 Feb 12:31:45 12:35:06 22° 294° (WNW) 12:38:25 437.445
DX 1 11 Feb 12:36:02 12:38:47 17° 297° (WNW) 12:41:31 434.975-435.025
ESTCUBE 1 11 Feb 12:46:08 12:48:24 14° 299° (WNW) 12:50:39 437.505/2401.250
Oscar 19 11 Feb 12:48:55 12:53:58 52° 260° (W) 12:59:02 437.125/150
DANDE 11 Feb 12:49:16 12:56:18 87° 262° (W) 13:01:32 436.750
RS-15 11 Feb 12:53:52 13:04:37 48° 319° (NW) 13:16:00 29.354- 29.394
SO-50 11 Feb 12:59:43 13:04:34 87° 53° (NE) 13:09:14 436.795
SWISSCUBE 11 Feb 13:16:09 13:20:28 32° 97° (E) 13:24:46 437.505
Gurwin Techsat 1B 11 Feb 13:33:15 13:38:26 55° 260° (W) 13:43:40 435.225
M-CUBED/EXP-1 PRIME 11 Feb 13:45:16 13:46:57 13° 61° (ENE) 13:48:36 437.505
CUSAT 1 11 Feb 13:47:21 13:49:40 13° 283° (WNW) 13:51:46 437.405
YUBILEINY 11 Feb 13:50:50 13:59:44 77° 81° (E) 14:08:32 435.215
AUBIESAT-1 11 Feb 13:53:26 13:55:11 13° 61° (ENE) 13:56:53 437.475
ITUPSAT 1 11 Feb 13:53:34 13:58:23 69° 102° (ESE) 14:03:11 437.325
Cosmos 2491 11 Feb 13:57:48 14:05:50 43° 87° (E) 14:13:51 435.465 / 435.565
BEESAT 11 Feb 14:00:54 14:05:43 83° 103° (ESE) 14:10:31 436.000
ITAMSAT 1 11 Feb 14:01:23 14:06:27 55° 259° (W) 14:11:35 435.822/435.867
HORYU 2 11 Feb 14:04:23 14:06:40 14° 62° (ENE) 14:08:59 437.375
TISAT 1 11 Feb 14:06:02 14:08:27 15° 296° (WNW) 14:10:50 437.305
AO-7 11 Feb 14:12:21 14:20:38 68° 67° (ENE) 14:28:55 29.400- 29.500
JAS-2 11 Feb 14:16:17 14:21:44 21° 269° (W) 14:26:54 435.910
Cosmos 2504 11 Feb 14:20:40 14:27:51 28° 66° (ENE) 14:34:38 435.465 / 435.565
DANDE 11 Feb 14:35:10 14:37:36 12° 286° (WNW) 14:39:49 436.750
ISS 11 Feb 14:35:14 14:38:16 37° 139° (SE) 14:41:18 145.825
SO-50 11 Feb 14:42:56 14:44:16 11° 254° (WSW) 14:45:36 436.795
STARS 11 Feb 14:51:35 14:54:55 21° 94° (E) 14:58:14 437.465
SWISSCUBE 11 Feb 14:54:04 14:58:10 29° 293° (WNW) 15:02:15 437.505
RS-15 11 Feb 15:12:00 15:21:05 25° 352° (N) 15:30:31 29.354- 29.394
KKS-1 11 Feb 15:12:33 15:16:58 66° 101° (ESE) 15:21:22 437.445
M-CUBED/EXP-1 PRIME 11 Feb 15:17:54 15:21:21 41° 255° (WSW) 15:24:36 437.505
MOZHAYETS 4 11 Feb 15:18:58 15:23:07 32° 96° (E) 15:27:15
AUBIESAT-1 11 Feb 15:26:06 15:29:30 40° 255° (WSW) 15:32:46 437.475
ITUPSAT 1 11 Feb 15:32:58 15:35:40 15° 299° (WNW) 15:38:21 437.325
HORYU 2 11 Feb 15:38:22 15:42:44 62° 259° (WSW) 15:47:08 437.375
O/OREOS (USA 219) 11 Feb 15:39:17 15:41:45 14° 51° (NE) 15:44:15 437.305
BEESAT 11 Feb 15:40:50 15:42:50 13° 301° (WNW) 15:44:50 436.000
YUBILEINY 11 Feb 15:49:05 15:55:31 23° 281° (W) 16:01:56 435.215
CUTE-I 11 Feb 15:53:53 15:57:26 18° 61° (ENE) 16:01:00 437.470
Cosmos 2491 11 Feb 15:54:30 16:02:37 43° 287° (WNW) 16:10:50 435.465 / 435.565
BRITE-PL 11 Feb 16:02:11 16:04:25 12° 59° (ENE) 16:06:36 437.365/2234.400
AO-7 11 Feb 16:07:08 16:13:58 28° 266° (W) 16:20:51 29.400- 29.500
Cubesat XI-IV 11 Feb 16:07:26 16:11:37 24° 63° (ENE) 16:15:48 437.490
CUBESAT XI-V 11 Feb 16:07:38 16:08:11 10° 88° (E) 16:08:43 437.345
ISS 11 Feb 16:11:45 16:14:44 32° 336° (NNW) 16:17:43 145.825
Cosmos 2504 11 Feb 16:13:27 16:21:57 65° 268° (W) 16:29:50 435.465 / 435.565
BEESAT 3 11 Feb 16:14:43 16:18:37 56° 119° (ESE) 16:22:32 437.485
LilacSat-2 11 Feb 16:15:32 16:17:49 15° 66° (ENE) 16:20:06 437.200
AO-85 11 Feb 16:21:52 16:24:22 13° 30° (NNE) 16:26:48 145.980
STARS 11 Feb 16:27:24 16:31:24 36° 290° (WNW) 16:35:23 437.465
BEESAT 2 11 Feb 16:42:10 16:46:09 71° 121° (ESE) 16:50:11 435.950
KKS-1 11 Feb 16:50:52 16:53:01 13° 299° (WNW) 16:55:08 437.445
MOZHAYETS 4 11 Feb 16:56:17 17:00:11 27° 293° (WNW) 17:04:05
GOMX 1 11 Feb 16:56:56 17:00:37 19° 64° (ENE) 17:04:10 467.674
AIST 2 11 Feb 17:15:40 17:18:20 17° 111° (ESE) 17:21:01 435.215
O/OREOS (USA 219) 11 Feb 17:17:07 17:21:43 74° 250° (WSW) 17:26:17 437.305
GONETS M04 11 Feb 17:22:16 17:26:07 13° 55° (NE) 17:29:57
RS-15 11 Feb 17:28:17 17:38:44 32° 27° (NNE) 17:49:23 29.354- 29.394
CUTE-I 11 Feb 17:31:40 17:36:57 65° 258° (WSW) 17:42:17 437.470
STRAND 1 11 Feb 17:32:54 17:33:16 10° 87° (E) 17:33:38 437.568
PCSat 11 Feb 17:34:41 17:38:18 18° 40° (NE) 17:41:53 145.827
BRITE-PL 11 Feb 17:36:22 17:42:02 78° 76° (ENE) 17:47:34 437.365/2234.400
CUBESAT XI-V 11 Feb 17:41:26 17:46:10 82° 285° (WNW) 17:50:51 437.345
Cubesat XI-IV 11 Feb 17:46:14 17:51:21 48° 261° (W) 17:56:32 437.490
LilacSat-2 11 Feb 17:48:15 17:51:50 39° 262° (W) 17:55:26 437.200
ISS 11 Feb 17:49:44 17:51:54 16° 356° (N) 17:54:04 145.825
BEESAT 3 11 Feb 17:53:58 17:56:41 17° 318° (NW) 17:59:26 437.485
AO-85 11 Feb 18:01:01 18:06:09 55° 52° (NE) 18:10:50 145.980
DOVE 4 11 Feb 18:05:13 18:09:56 41° 71° (ENE) 18:14:25 437.250
Cosmos 2504 11 Feb 18:11:05 18:13:23 11° 289° (WNW) 18:15:39 435.465 / 435.565
COMPASS 1 11 Feb 18:17:12 18:18:29 11° 62° (ENE) 18:19:47 437.405
HO-68 11 Feb 18:17:33 18:24:10 42° 64° (ENE) 18:30:49 435.675
BEESAT 2 11 Feb 18:22:07 18:24:31 15° 320° (NW) 18:26:55 435.950
CUTE 1.7 + AOD 2 11 Feb 18:29:20 18:32:52 27° 68° (ENE) 18:36:25 437.475
SEEDS 11 Feb 18:32:38 18:35:52 22° 67° (ENE) 18:39:07 437.485
GOMX 1 11 Feb 18:32:57 18:38:16 60° 259° (W) 18:43:22 467.674
AAUSAT CUBESAT 2 11 Feb 18:42:21 18:45:06 17° 65° (ENE) 18:47:51 437.432
CUBEBUG 2 11 Feb 18:42:47 18:44:20 12° 62° (ENE) 18:45:52 437.445
CINEMA 3 11 Feb 18:46:02 18:50:12 36° 71° (ENE) 18:54:13 145.822/145.860
AIST 2 11 Feb 18:52:24 18:56:27 49° 307° (NW) 19:00:32 435.215
STRAND 1 11 Feb 19:07:57 19:13:10 87° 105° (ESE) 19:18:19 437.568
CANX-2 11 Feb 19:13:58 19:18:10 86° 256° (WSW) 19:22:26 2200.000
Cosmos 2499 11 Feb 19:16:09 19:23:15 29° 66° (ENE) 19:29:51 435.465 / 435.565
GONETS M04 11 Feb 19:16:13 19:24:58 64° 78° (ENE) 19:33:43
PCSat 11 Feb 19:17:00 19:22:29 90° 51° (NE) 19:27:54 145.827
BRITE-PL 11 Feb 19:17:51 19:21:00 15° 271° (W) 19:24:07 437.365/2234.400
ISS 11 Feb 19:26:33 19:29:12 22° 17° (NNE) 19:31:49 145.825
ZACube-1 11 Feb 19:27:34 19:30:24 18° 66° (ENE) 19:33:12 437.345
FUNcube-1 11 Feb 19:35:17 19:38:22 20° 67° (ENE) 19:41:26 145.935
DELFI C3 11 Feb 19:40:56 19:43:29 17° 65° (ENE) 19:46:02 145.870
RS-15 11 Feb 19:41:15 19:53:29 79° 55° (NE) 20:05:51 29.354- 29.394
AO-85 11 Feb 19:42:34 19:46:09 20° 252° (WSW) 19:49:33 145.980
DOVE 4 11 Feb 19:43:45 19:47:43 23° 266° (W) 19:51:34 437.250
COMPASS 1 11 Feb 19:49:21 19:53:28 70° 259° (WSW) 19:57:40 437.405
PRISM 11 Feb 20:01:02 20:05:14 76° 285° (WNW) 20:09:22 437.425
Oscar 11 11 Feb 20:03:52 20:08:04 57° 74° (ENE) 20:12:18 145.826/435.025
CUTE 1.7 + AOD 2 11 Feb 20:05:06 20:08:39 26° 265° (W) 20:12:15 437.475
HO-68 11 Feb 20:05:12 20:11:51 40° 262° (W) 20:18:34 435.675
SEEDS 11 Feb 20:07:39 20:11:25 32° 264° (W) 20:15:12 437.485
UWE-3 11 Feb 20:12:39 20:16:54 79° 75° (ENE) 20:21:04 435.000/436.395/437.385
CUBEBUG 2 11 Feb 20:16:10 20:20:27 68° 259° (WSW) 20:24:40 437.445
AAUSAT CUBESAT 2 11 Feb 20:16:22 20:20:16 41° 262° (W) 20:24:14 437.432
CINEMA 3 11 Feb 20:23:51 20:27:25 22° 266° (W) 20:30:53 145.822/145.860
AIST 1 11 Feb 20:43:31 20:47:40 41° 77° (ENE) 20:51:44
STRAND 1 11 Feb 20:49:12 20:51:36 13° 302° (WNW) 20:53:59 437.568
ZACube-1 11 Feb 21:02:27 21:06:25 40° 262° (W) 21:10:22 437.345
ISS 11 Feb 21:02:43 21:05:58 84° 213° (SSW) 21:09:12 145.825
PCSat 11 Feb 21:02:57 21:05:03 12° 258° (WSW) 21:07:09 145.827
HUMSAT D 11 Feb 21:03:21 21:07:21 58° 74° (ENE) 21:11:23 437.325/437.525
50 SAT 11 Feb 21:04:48 21:06:26 13° 64° (ENE) 21:08:05 437.505
Cosmos 2499 11 Feb 21:08:46 21:16:58 61° 269° (W) 21:24:31 435.465 / 435.565
FUNcube-1 11 Feb 21:10:36 21:14:26 34° 263° (W) 21:18:14 145.935
GONETS M04 11 Feb 21:14:01 21:21:07 29° 278° (W) 21:28:14
DELFI C3 11 Feb 21:14:20 21:18:05 40° 262° (W) 21:21:52 145.870
VELOX 1 11 Feb 21:21:38 21:24:54 20° 65° (ENE) 21:28:10 145.980
UNISAT 6 11 Feb 21:29:23 21:32:56 24° 95° (E) 21:36:32 437.425
AISAT 11 Feb 21:37:56 21:41:50 30° 68° (ENE) 21:45:45 437.250
UKube-1 11 Feb 21:39:29 21:43:09 27° 68° (ENE) 21:46:50 .
Oscar 11 11 Feb 21:42:33 21:44:34 13° 270° (W) 21:46:35 145.826/435.025
SPROUT 11 Feb 21:47:56 21:49:10 11° 61° (ENE) 21:50:25 437.525
CUBEBUG 1 11 Feb 21:51:28 21:55:26 33° 69° (ENE) 21:59:24 437.445
DX 1 11 Feb 21:54:38 21:58:50 46° 71° (ENE) 22:03:03 434.975-435.025
RS-15 11 Feb 21:54:48 22:04:51 32° 257° (WSW) 22:14:59 29.354- 29.394
QB50P1 11 Feb 22:01:32 22:03:12 12° 90° (E) 22:04:51 145.935-145.965
ESTCUBE 1 11 Feb 22:07:27 22:11:56 66° 74° (ENE) 22:16:28 437.505/2401.250
ANTELSAT 11 Feb 22:13:47 22:18:09 73° 102° (ESE) 22:22:36 437.575/2403.000
TIGRISAT 11 Feb 22:19:56 22:24:18 81° 105° (ESE) 22:28:44 435.000
AIST 1 11 Feb 22:22:09 22:24:53 17° 274° (W) 22:27:37
50 SAT 11 Feb 22:36:28 22:40:02 47° 260° (W) 22:43:40 437.505
HUMSAT D 11 Feb 22:42:02 22:43:23 11° 270° (W) 22:44:44 437.325/437.525
BUGSAT 1 11 Feb 22:44:41 22:47:21 17° 93° (E) 22:50:00 437.445
POLYITAN 1 11 Feb 22:53:03 22:57:07 46° 99° (E) 23:01:10 437.675
QB50P2 11 Feb 22:53:35 22:57:41 48° 100° (E) 23:01:45 145.880/145.840
VELOX 1 11 Feb 22:56:53 23:01:06 41° 261° (W) 23:05:20 145.980
UNISAT 6 11 Feb 23:05:50 23:09:41 31° 290° (WNW) 23:13:36 437.425
AISAT 11 Feb 23:14:33 23:18:18 26° 265° (W) 23:22:05 437.250
UKube-1 11 Feb 23:15:26 23:19:09 27° 264° (W) 23:22:54 .
SPROUT 11 Feb 23:20:14 23:24:32 76° 258° (WSW) 23:28:51 437.525
TISAT 1 11 Feb 23:21:19 23:25:17 40° 71° (ENE) 23:29:14 437.305
POPSAT HIP 1 11 Feb 23:22:43 23:26:55 83° 286° (WNW) 23:31:07 437.405
CUSAT 1 11 Feb 23:25:14 23:29:37 16° 79° (E) 23:33:58 437.405
NANOSAT C BR1 11 Feb 23:26:03 23:30:15 77° 286° (WNW) 23:34:26 145.865
DUCHIFAT 1 11 Feb 23:26:30 23:30:42 80° 284° (WNW) 23:34:52 145.980
ITUPSAT 1 11 Feb 23:27:30 23:28:30 11° 58° (ENE) 23:29:29 437.325
PHONESAT 2.4 11 Feb 23:28:10 23:30:40 20° 155° (SSE) 23:33:11 2401.200-2431.200
CUBEBUG 1 11 Feb 23:28:11 23:31:46 24° 266° (W) 23:35:20 437.445
DX 1 11 Feb 23:32:28 23:35:16 17° 268° (W) 23:38:04 434.975-435.025
BEESAT 11 Feb 23:33:26 23:35:25 13° 59° (ENE) 23:37:25 436.000
QB50P1 11 Feb 23:35:13 23:39:22 58° 286° (WNW) 23:43:29 145.935-145.965
ESTCUBE 1 11 Feb 23:47:20 23:49:12 12° 271° (W) 23:51:05 437.505/2401.250
ANTELSAT 11 Feb 23:52:42 23:54:19 12° 298° (WNW) 23:55:56 437.575/2403.000
TIGRISAT 11 Feb 23:59:23 00:00:23 11° 299° (WNW) 00:01:22 435.000
Cosmos 2491 12 Feb 00:07:27 00:13:57 22° 63° (ENE) 00:20:24 435.465 / 435.565
DANDE 12 Feb 00:14:46 00:20:40 23° 81° (E) 00:26:50 436.750
BUGSAT 1 12 Feb 00:19:09 00:22:54 37° 289° (WNW) 00:26:37 437.445
SWISSCUBE 12 Feb 00:23:08 00:27:34 40° 70° (ENE) 00:32:02 437.505
POLYITAN 1 12 Feb 00:29:57 00:32:34 16° 296° (WNW) 00:35:13 437.675
QB50P2 12 Feb 00:30:34 00:33:06 16° 296° (WNW) 00:35:38 145.880/145.840
BEESAT 3 12 Feb 00:31:49 00:35:35 40° 51° (NE) 00:39:19 437.485
TISAT 1 12 Feb 00:58:17 01:01:07 18° 267° (W) 01:03:59 437.305
Oscar 19 12 Feb 00:59:41 01:04:42 52° 100° (E) 01:09:41 437.125/150
BEESAT 2 12 Feb 01:00:00 01:03:55 51° 53° (NE) 01:07:47 435.950
YUBILEINY 12 Feb 01:00:09 01:05:17 17° 76° (ENE) 01:10:23 435.215
ITUPSAT 1 12 Feb 01:00:46 01:05:32 84° 74° (ENE) 01:10:22 437.325
CUSAT 1 12 Feb 01:02:43 01:10:45 75° 96° (E) 01:18:40 437.405
PHONESAT 2.4 12 Feb 01:04:21 01:07:34 52° 171° (S) 01:10:46 2401.200-2431.200
BEESAT 12 Feb 01:07:46 01:12:32 82° 257° (WSW) 01:17:20 436.000
JAS-2 12 Feb 01:23:36 01:29:09 59° 100° (E) 01:34:17 435.910
AIST 2 12 Feb 01:35:36 01:38:22 17° 41° (NE) 01:41:08 435.215
Gurwin Techsat 1B 12 Feb 01:48:37 01:53:53 57° 101° (E) 01:59:06 435.225
STARS 12 Feb 01:49:05 01:52:25 21° 65° (ENE) 01:55:45 437.465
DANDE 12 Feb 01:54:42 02:02:39 83° 280° (W) 02:11:13 436.750
SWISSCUBE 12 Feb 02:01:48 02:05:31 22° 266° (W) 02:09:15 437.505
Cosmos 2491 12 Feb 02:03:06 02:11:52 83° 266° (W) 02:20:40 435.465 / 435.565
BEESAT 3 12 Feb 02:10:17 02:13:04 19° 248° (WSW) 02:15:49 437.485
KKS-1 12 Feb 02:10:56 02:15:22 65° 74° (ENE) 02:19:48 437.445
ITAMSAT 1 12 Feb 02:13:26 02:18:32 50° 100° (E) 02:23:36 435.822/435.867
AO-7 12 Feb 02:14:44 02:20:27 20° 91° (E) 02:26:06 29.400- 29.500
MOZHAYETS 4 12 Feb 02:21:29 02:25:32 32° 69° (ENE) 02:29:37
BEESAT 2 12 Feb 02:39:08 02:41:23 15° 250° (WSW) 02:43:39 435.950
Oscar 19 12 Feb 02:39:54 02:43:39 21° 297° (WNW) 02:47:21 437.125/150
PHONESAT 2.4 12 Feb 02:41:27 02:44:41 55° 187° (S) 02:47:54 2401.200-2431.200
ITUPSAT 1 12 Feb 02:43:21 02:44:00 10° 272° (W) 02:44:38 437.325
CUSAT 1 12 Feb 02:47:06 02:53:41 27° 294° (WNW) 03:00:07 437.405
YUBILEINY 12 Feb 02:51:52 03:00:40 85° 95° (E) 03:09:33 435.215
Cosmos 2504 12 Feb 03:00:23 03:06:41 23° 79° (ENE) 03:13:06 435.465 / 435.565
JAS-2 12 Feb 03:09:51 03:13:40 19° 301° (WNW) 03:17:18 435.910
CUBESAT XI-V 12 Feb 03:11:03 03:12:58 12° 60° (ENE) 03:14:54 437.345
AIST 2 12 Feb 03:13:11 03:17:17 62° 240° (WSW) 03:21:19 435.215
SO-50 12 Feb 03:14:53 03:18:53 25° 112° (ESE) 03:22:54 436.795
STARS 12 Feb 03:24:28 03:28:34 37° 262° (W) 03:32:40 437.465
HORYU 2 12 Feb 03:29:10 03:32:44 23° 95° (E) 03:36:17 437.375
Gurwin Techsat 1B 12 Feb 03:29:34 03:33:24 20° 298° (WNW) 03:37:12 435.225
DANDE 12 Feb 03:41:05 03:46:54 21° 300° (WNW) 03:52:53 436.750
KKS-1 12 Feb 03:50:33 03:52:22 12° 270° (W) 03:54:11 437.445
ITAMSAT 1 12 Feb 03:53:40 03:57:39 22° 297° (WNW) 04:01:37 435.822/435.867
MOZHAYETS 4 12 Feb 03:58:56 04:02:43 26° 266° (W) 04:06:33
Cosmos 2491 12 Feb 04:02:26 04:07:17 16° 285° (WNW) 04:12:09 435.465 / 435.565
AO-7 12 Feb 04:05:48 04:14:10 86° 292° (WNW) 04:22:29 29.400- 29.500
PHONESAT 2.4 12 Feb 04:18:56 04:21:37 23° 204° (SSW) 04:24:16 2401.200-2431.200
M-CUBED/EXP-1 PRIME 12 Feb 04:30:35 04:34:00 68° 290° (WNW) 04:37:36 437.505
AUBIESAT-1 12 Feb 04:38:12 04:41:39 68° 290° (WNW) 04:45:18 437.475
CUBESAT XI-V 12 Feb 04:44:59 04:49:41 80° 257° (WSW) 04:54:26 437.345
STRAND 1 12 Feb 04:47:33 04:50:55 18° 61° (ENE) 04:54:17 437.568
Cosmos 2504 12 Feb 04:50:21 04:59:00 80° 279° (W) 05:07:59 435.465 / 435.565
YUBILEINY 12 Feb 04:52:15 04:58:38 22° 298° (WNW) 05:05:07 435.215
SO-50 12 Feb 04:54:25 04:59:08 45° 310° (NW) 05:03:55 436.795
HORYU 2 12 Feb 05:05:20 05:09:21 34° 291° (WNW) 05:13:23 437.375
LilacSat-2 12 Feb 05:21:33 05:24:22 19° 94° (E) 05:27:10 437.200
BRITE-PL 12 Feb 05:42:16 05:45:49 21° 92° (E) 05:49:11 437.365/2234.400
CUTE-I 12 Feb 05:48:03 05:53:17 48° 100° (E) 05:58:27 437.470
O/OREOS (USA 219) 12 Feb 05:54:09 05:55:34 11° 97° (E) 05:56:59 437.305
AO-7 12 Feb 05:59:58 06:05:50 22° 310° (NW) 06:11:41 29.400- 29.500
Cubesat XI-IV 12 Feb 06:02:29 06:07:52 65° 102° (ESE) 06:13:12 437.490
STRAND 1 12 Feb 06:24:32 06:29:35 62° 259° (WSW) 06:34:42 437.568
GONETS M04 12 Feb 06:27:39 06:31:08 13° 73° (ENE) 06:34:38
GOMX 1 12 Feb 06:34:56 06:38:59 36° 96° (E) 06:42:51 467.674
SO-50 12 Feb 06:39:41 06:40:55 11° 331° (NNW) 06:42:08 436.795
Cosmos 2504 12 Feb 06:48:19 06:53:57 18° 301° (WNW) 06:59:40 435.465 / 435.565
PRISM 12 Feb 06:50:48 06:54:58 84° 74° (ENE) 06:59:10 437.425
LilacSat-2 12 Feb 06:55:25 06:58:42 28° 290° (WNW) 07:02:00 437.200
CANX-2 12 Feb 06:59:35 07:02:14 16° 91° (E) 07:04:52 2200.000
BRITE-PL 12 Feb 07:20:11 07:24:29 36° 291° (WNW) 07:28:30 437.365/2234.400
CUTE-I 12 Feb 07:28:46 07:33:00 24° 297° (WNW) 07:37:13 437.470
O/OREOS (USA 219) 12 Feb 07:29:51 07:34:18 70° 294° (WNW) 07:38:50 437.305
HO-68 12 Feb 07:31:37 07:38:19 40° 98° (E) 07:44:58 435.675
COMPASS 1 12 Feb 07:32:36 07:35:30 18° 92° (E) 07:38:22 437.405
DOVE 4 12 Feb 07:41:03 07:45:17 83° 284° (WNW) 07:49:25 437.250
Cubesat XI-IV 12 Feb 07:43:47 07:47:24 19° 299° (WNW) 07:51:00 437.490
CUTE 1.7 + AOD 2 12 Feb 07:48:35 07:52:45 48° 99° (E) 07:56:54 437.475
SEEDS 12 Feb 07:50:32 07:54:32 37° 97° (E) 07:58:30 437.485
Cosmos 2499 12 Feb 07:53:43 08:00:14 24° 79° (E) 08:06:48 435.465 / 435.565
AAUSAT CUBESAT 2 12 Feb 07:58:14 08:01:51 27° 95° (E) 08:05:27 437.432
UWE-3 12 Feb 08:02:49 08:05:10 14° 92° (E) 08:07:32 435.000/436.395/437.385
CUBEBUG 2 12 Feb 08:06:43 08:10:01 22° 94° (E) 08:13:22 437.445
GOMX 1 12 Feb 08:13:38 08:16:51 20° 295° (WNW) 08:19:57 467.674
CINEMA 3 12 Feb 08:16:32 08:20:42 81° 101° (E) 08:24:55 145.822/145.860
AO-85 12 Feb 08:16:50 08:20:25 18° 108° (ESE) 08:24:06 145.980
GONETS M04 12 Feb 08:17:38 08:26:14 72° 94° (E) 08:34:55
UNISAT 6 12 Feb 08:29:16 08:32:40 23° 67° (ENE) 08:36:03 437.425
CANX-2 12 Feb 08:34:12 08:38:20 46° 288° (WNW) 08:42:27 2200.000
ZACube-1 12 Feb 08:49:49 08:53:40 33° 97° (E) 08:57:33 437.345
DELFI C3 12 Feb 08:51:58 08:55:15 23° 95° (E) 08:58:32 145.870
QB50P1 12 Feb 08:55:44 08:56:56 11° 61° (ENE) 08:58:09 145.935-145.965
FUNcube-1 12 Feb 08:57:25 09:01:23 38° 98° (E) 09:05:24 145.935
COMPASS 1 12 Feb 09:07:17 09:11:14 40° 288° (WNW) 09:15:11 437.405
ANTELSAT 12 Feb 09:13:13 09:17:29 68° 75° (ENE) 09:21:44 437.575/2403.000
AIST 1 12 Feb 09:13:52 09:17:24 24° 89° (E) 09:20:58
TIGRISAT 12 Feb 09:19:10 09:23:27 76° 76° (ENE) 09:27:43 435.000
CUTE 1.7 + AOD 2 12 Feb 09:25:31 09:28:13 17° 295° (WNW) 09:30:56 437.475
